Time,TemperatureF,DewpointF,PressureIn,WindDirection,WindDirectionDegrees,WindSpeedMPH,WindSpeedGustMPH,Humidity,HourlyPrecipIn,Conditions,Clouds,dailyrainin,SoftwareType,DateUTC
2013-08-11 00:01:00,71.0,15.8,29.35,NNW,337,0.0,0.0,12,0.00,RA,OVC,0.00,WeatherDisplay:10.37,2013-08-11 04:01:00,
2013-08-11 00:06:00,71.0,19.4,29.35,NNW,337,0.0,0.0,14,0.00,RA,OVC,0.00,WeatherDisplay:10.37,2013-08-11 04:06:00,
2013-08-11 00:11:00,71.0,15.8,29.35,NNW,337,0.0,0.0,12,0.00,CLR,OVC,0.00,WeatherDisplay:10.37,2013-08-11 04:11:00,
2013-08-11 00:16:00,71.0,22.5,29.35,NNW,337,0.0,0.0,16,0.00,CLR,OVC,0.00,WeatherDisplay:10.37,2013-08-11 04:16:00,
2013-08-11 00:21:00,71.0,9.3,29.35,North,360,0.0,0.0,9,0.00,CLR,OVC,0.00,WeatherDisplay:10.37,2013-08-11 04:21:00,
2013-08-11 00:26:00,71.0,17.6,29.35,North,360,0.0,0.0,13,0.00,CLR,OVC,0.00,WeatherDisplay:10.37,2013-08-11 04:26:00,
2013-08-11 00:31:00,70.0,18.6,29.35,North,360,0.0,0.0,14,0.00,CLR,OVC,0.00,WeatherDisplay:10.37,2013-08-11 04:31:00,
2013-08-11 00:36:00,70.0,16.8,29.35,North,360,0.0,0.0,13,0.00,CLR,OVC,0.00,WeatherDisplay:10.37,2013-08-11 04:36:00,
2013-08-11 00:41:00,70.0,16.8,29.35,North,360,0.0,0.0,13,0.00,CLR,OVC,0.00,WeatherDisplay:10.37,2013-08-11 04:41:00,
2013-08-11 00:46:00,70.0,16.8,29.35,North,360,0.0,0.0,13,0.00,CLR,OVC,0.00,WeatherDisplay:10.37,2013-08-11 04:46:00,
2013-08-11 00:51:00,70.0,20.2,29.35,North,360,0.0,0.0,15,0.00,CLR,OVC,0.00,WeatherDisplay:10.37,2013-08-11 04:51:00,
2013-08-11 00:56:00,70.0,15.0,29.34,North,360,0.0,0.0,12,0.00,CLR,OVC,0.00,WeatherDisplay:10.37,2013-08-11 04:56:00,
2013-08-11 01:01:00,70.0,8.5,29.34,North,360,0.0,0.0,9,0.00,CLR,OVC,0.00,WeatherDisplay:10.37,2013-08-11 05:01:00,
2013-08-11 01:07:00,70.0,15.0,29.34,North,360,0.0,0.0,12,0.00,CLR,OVC,0.00,WeatherDisplay:10.37,2013-08-11 05:07:00,
2013-08-11 01:12:00,70.0,15.0,29.34,North,360,0.0,0.0,12,0.00,CLR,OVC,0.00,WeatherDisplay:10.37,2013-08-11 05:12:00,
2013-08-11 01:17:00,70.0,16.8,29.33,North,360,0.0,0.0,13,0.00,CLR,OVC,0.00,WeatherDisplay:10.37,2013-08-11 05:17:00,
2013-08-11 01:22:00,70.0,13.0,29.33,North,360,0.0,0.0,11,0.00,CLR,OVC,0.00,WeatherDisplay:10.37,2013-08-11 05:22:00,
2013-08-11 01:27:00,70.0,10.9,29.33,North,360,0.0,0.0,10,0.00,CLR,OVC,0.00,WeatherDisplay:10.37,2013-08-11 05:27:00,
2013-08-11 01:32:00,70.0,5.9,29.33,North,360,0.0,0.0,8,0.00,CLR,OVC,0.00,WeatherDisplay:10.37,2013-08-11 05:32:00,
2013-08-11 01:37:00,70.0,3.0,29.33,North,360,0.0,0.0,7,0.00,CLR,OVC,0.00,WeatherDisplay:10.37,2013-08-11 05:37:00,
2013-08-11 01:43:00,70.0,-0.3,29.33,North,360,0.0,0.0,6,0.00,CLR,OVC,0.00,WeatherDisplay:10.37,2013-08-11 05:43:00,
2013-08-11 01:48:00,70.0,8.5,29.33,North,360,0.0,0.0,9,0.00,CLR,OVC,0.00,WeatherDisplay:10.37,2013-08-11 05:48:00,
2013-08-11 01:54:00,70.0,5.9,29.33,North,360,0.0,0.0,8,0.00,CLR,OVC,0.00,WeatherDisplay:10.37,2013-08-11 05:54:00,
2013-08-11 01:59:00,70.0,5.9,29.33,North,360,0.0,0.0,8,0.00,CLR,OVC,0.00,WeatherDisplay:10.37,2013-08-11 05:59:00,
2013-08-11 02:04:00,69.0,7.7,29.33,North,360,0.0,0.0,9,0.00,CLR,OVC,0.00,WeatherDisplay:10.37,2013-08-11 06:04:00,
2013-08-11 02:10:00,69.0,5.1,29.33,North,360,0.0,0.0,8,0.00,CLR,OVC,0.00,WeatherDisplay:10.37,2013-08-11 06:10:00,
2013-08-11 02:16:00,70.0,8.5,29.33,North,360,0.0,0.0,9,0.00,CLR,OVC,0.00,WeatherDisplay:10.37,2013-08-11 06:16:00,
2013-08-11 02:21:00,70.0,3.0,29.33,North,360,0.0,0.0,7,0.00,CLR,OVC,0.00,WeatherDisplay:10.37,2013-08-11 06:21:00,
2013-08-11 02:26:00,70.0,5.9,29.33,North,360,0.0,0.0,8,0.00,CLR,OVC,0.00,WeatherDisplay:10.37,2013-08-11 06:26:00,
2013-08-11 02:31:00,70.0,-0.3,29.33,North,360,0.0,0.0,6,0.00,CLR,OVC,0.00,WeatherDisplay:10.37,2013-08-11 06:31:00,
2013-08-11 02:36:00,70.0,3.0,29.33,North,360,0.0,0.0,7,0.00,CLR,OVC,0.00,WeatherDisplay:10.37,2013-08-11 06:36:00,
2013-08-11 02:42:00,69.0,5.1,29.33,North,360,0.0,0.0,8,0.00,CLR,OVC,0.00,WeatherDisplay:10.37,2013-08-11 06:42:00,
2013-08-11 02:47:00,70.0,5.9,29.33,North,360,0.0,0.0,8,0.00,CLR,OVC,0.00,WeatherDisplay:10.37,2013-08-11 06:47:00,
2013-08-11 02:52:00,70.0,-4.2,29.33,North,360,0.0,0.0,5,0.00,CLR,OVC,0.00,WeatherDisplay:10.37,2013-08-11 06:52:00,
2013-08-11 02:57:00,70.0,-0.3,29.33,North,360,0.0,0.0,6,0.00,CLR,OVC,0.00,WeatherDisplay:10.37,2013-08-11 06:57:00,
2013-08-11 03:02:00,70.0,-8.8,29.33,North,360,0.0,0.0,4,0.00,CLR,OVC,0.00,WeatherDisplay:10.37,2013-08-11 07:02:00,
2013-08-11 03:07:00,70.0,-0.3,29.33,North,360,0.0,0.0,6,0.00,CLR,OVC,0.00,WeatherDisplay:10.37,2013-08-11 07:07:00,
2013-08-11 03:12:00,70.0,-8.8,29.33,North,360,0.0,0.0,4,0.00,CLR,OVC,0.00,WeatherDisplay:10.37,2013-08-11 07:12:00,
2013-08-11 03:17:00,70.0,-14.6,29.33,North,360,0.0,0.0,3,0.00,CLR,OVC,0.00,WeatherDisplay:10.37,2013-08-11 07:17:00,
2013-08-11 03:23:00,70.0,-22.5,29.33,North,360,0.0,0.0,2,0.00,CLR,OVC,0.00,WeatherDisplay:10.37,2013-08-11 07:23:00,
2013-08-11 03:28:00,70.0,-22.5,29.33,North,360,0.0,0.0,2,0.00,CLR,OVC,0.00,WeatherDisplay:10.37,2013-08-11 07:28:00,
2013-08-11 03:33:00,70.0,-35.2,29.33,North,360,0.0,0.0,1,0.00,CLR,OVC,0.00,WeatherDisplay:10.37,2013-08-11 07:33:00,
2013-08-11 03:39:00,70.0,-14.6,29.34,NW,315,2.3,2.3,3,0.00,CLR,OVC,0.00,WeatherDisplay:10.37,2013-08-11 07:39:00,
2013-08-11 03:44:00,70.0,-14.6,29.34,West,270,0.0,0.0,3,0.00,CLR,OVC,0.00,WeatherDisplay:10.37,2013-08-11 07:44:00,
2013-08-11 03:49:00,70.0,-0.3,29.33,West,270,2.3,2.3,6,0.00,CLR,OVC,0.00,WeatherDisplay:10.37,2013-08-11 07:49:00,
2013-08-11 03:54:00,70.0,-4.2,29.33,West,270,0.0,0.0,5,0.00,CLR,OVC,0.00,WeatherDisplay:10.37,2013-08-11 07:54:00,
2013-08-11 03:59:00,70.0,-8.8,29.33,West,270,0.0,0.0,4,0.00,CLR,OVC,0.00,WeatherDisplay:10.37,2013-08-11 07:59:00,
2013-08-11 04:04:00,70.0,-14.6,29.33,WNW,292,0.0,0.0,3,0.00,CLR,OVC,0.00,WeatherDisplay:10.37,2013-08-11 08:04:00,
2013-08-11 04:09:00,70.0,-14.6,29.34,West,270,0.0,0.0,3,0.00,CLR,OVC,0.00,WeatherDisplay:10.37,2013-08-11 08:09:00,
2013-08-11 04:14:00,70.0,-22.5,29.34,West,270,0.0,0.0,2,0.00,CLR,OVC,0.00,WeatherDisplay:10.37,2013-08-11 08:14:00,
2013-08-11 04:19:00,70.0,-22.5,29.33,West,270,0.0,0.0,2,0.00,CLR,OVC,0.00,WeatherDisplay:10.37,2013-08-11 08:19:00,
2013-08-11 04:25:00,70.0,8.5,29.34,West,270,0.0,0.0,9,0.00,CLR,OVC,0.00,WeatherDisplay:10.37,2013-08-11 08:25:00,
2013-08-11 04:30:00,70.0,-35.2,29.34,West,270,0.0,0.0,1,0.00,CLR,OVC,0.00,WeatherDisplay:10.37,2013-08-11 08:30:00,
2013-08-11 04:35:00,70.0,3.0,29.34,West,270,0.0,0.0,7,0.00,CLR,OVC,0.00,WeatherDisplay:10.37,2013-08-11 08:35:00,
2013-08-11 04:41:00,70.0,99.9,29.34,West,270,0.0,0.0,0,0.00,CLR,OVC,0.00,WeatherDisplay:10.37,2013-08-11 08:41:00,
2013-08-11 04:46:00,70.0,-22.5,29.34,West,270,0.0,0.0,2,0.00,CLR,OVC,0.00,WeatherDisplay:10.37,2013-08-11 08:46:00,
2013-08-11 04:51:00,70.0,99.9,29.34,West,270,0.0,0.0,0,0.00,CLR,OVC,0.00,WeatherDisplay:10.37,2013-08-11 08:51:00,
2013-08-11 04:56:00,70.0,-35.2,29.34,West,270,0.0,0.0,1,0.00,CLR,OVC,0.00,WeatherDisplay:10.37,2013-08-11 08:56:00,
2013-08-11 05:01:00,70.0,99.9,29.34,West,270,0.0,0.0,0,0.00,CLR,OVC,0.00,WeatherDisplay:10.37,2013-08-11 09:01:00,
2013-08-11 05:06:00,70.0,99.9,29.34,West,270,0.0,0.0,0,0.00,CLR,OVC,0.00,WeatherDisplay:10.37,2013-08-11 09:06:00,
2013-08-11 05:12:00,70.0,99.9,29.34,West,270,0.0,0.0,0,0.00,CLR,OVC,0.00,WeatherDisplay:10.37,2013-08-11 09:12:00,
2013-08-11 05:17:00,70.0,99.9,29.34,West,270,0.0,0.0,0,0.00,CLR,OVC,0.00,WeatherDisplay:10.37,2013-08-11 09:17:00,
2013-08-11 05:22:00,70.0,99.9,29.34,West,270,0.0,0.0,0,0.00,CLR,OVC,0.00,WeatherDisplay:10.37,2013-08-11 09:22:00,
2013-08-11 05:28:00,69.0,-35.8,29.33,West,270,0.0,0.0,1,0.00,CLR,OVC,0.00,WeatherDisplay:10.37,2013-08-11 09:28:00,
2013-08-11 05:33:00,69.0,99.9,29.33,West,270,0.0,0.0,0,0.00,CLR,OVC,0.00,WeatherDisplay:10.37,2013-08-11 09:33:00,
2013-08-11 05:39:00,69.0,99.9,29.34,West,270,0.0,0.0,0,0.00,CLR,OVC,0.00,WeatherDisplay:10.37,2013-08-11 09:39:00,
2013-08-11 05:44:00,70.0,99.9,29.34,West,270,0.0,0.0,0,0.00,CLR,OVC,0.00,WeatherDisplay:10.37,2013-08-11 09:44:00,
2013-08-11 05:49:00,69.0,99.9,29.34,West,270,0.0,0.0,0,0.00,CLR,OVC,0.00,WeatherDisplay:10.37,2013-08-11 09:49:00,
2013-08-11 05:56:00,69.0,99.9,29.35,West,270,0.0,0.0,0,0.00,CLR,OVC,0.00,WeatherDisplay:10.37,2013-08-11 09:56:00,
2013-08-11 06:01:00,69.0,99.9,29.35,West,270,0.0,0.0,0,0.00,CLR,OVC,0.00,WeatherDisplay:10.37,2013-08-11 10:01:00,
2013-08-11 06:06:00,69.0,99.9,29.35,West,270,0.0,0.0,0,0.00,CLR,OVC,0.00,WeatherDisplay:10.37,2013-08-11 10:06:00,
2013-08-11 06:13:00,69.0,99.9,29.35,West,270,0.0,0.0,0,0.00,CLR,OVC,0.00,WeatherDisplay:10.37,2013-08-11 10:13:00,
2013-08-11 06:18:00,69.0,99.9,29.36,West,270,0.0,0.0,0,0.00,CLR,OVC,0.00,WeatherDisplay:10.37,2013-08-11 10:18:00,
2013-08-11 06:23:00,69.0,99.9,29.36,West,270,0.0,0.0,0,0.00,CLR,OVC,0.00,WeatherDisplay:10.37,2013-08-11 10:23:00,
2013-08-11 06:28:00,69.0,99.9,29.36,West,270,0.0,0.0,0,0.00,CLR,OVC,0.00,WeatherDisplay:10.37,2013-08-11 10:28:00,
2013-08-11 06:33:00,69.0,99.9,29.36,West,270,0.0,0.0,0,0.00,CLR,OVC,0.00,WeatherDisplay:10.37,2013-08-11 10:33:00,
2013-08-11 06:39:00,69.0,99.9,29.36,West,270,0.0,0.0,0,0.00,CLR,OVC,0.00,WeatherDisplay:10.37,2013-08-11 10:39:00,
2013-08-11 06:44:00,69.0,99.9,29.36,West,270,0.0,0.0,0,0.00,CLR,OVC,0.00,WeatherDisplay:10.37,2013-08-11 10:44:00,
2013-08-11 06:49:00,69.0,99.9,29.36,West,270,0.0,0.0,0,0.00,CLR,OVC,0.00,WeatherDisplay:10.37,2013-08-11 10:49:00,
2013-08-11 06:54:00,69.0,99.9,29.36,WNW,292,0.0,0.0,0,0.00,CLR,OVC,0.00,WeatherDisplay:10.37,2013-08-11 10:54:00,
2013-08-11 06:59:00,69.0,99.9,29.37,North,360,0.0,0.0,0,0.00,CLR,OVC,0.00,WeatherDisplay:10.37,2013-08-11 10:59:00,
2013-08-11 07:04:00,69.0,99.9,29.37,North,360,0.0,0.0,0,0.00,CLR,OVC,0.00,WeatherDisplay:10.37,2013-08-11 11:04:00,
2013-08-11 07:10:00,70.0,99.9,29.37,North,360,0.0,0.0,0,0.00,CLR,OVC,0.00,WeatherDisplay:10.37,2013-08-11 11:10:00,
2013-08-11 07:15:00,70.0,99.9,29.37,North,360,0.0,0.0,0,0.00,CLR,OVC,0.00,WeatherDisplay:10.37,2013-08-11 11:15:00,
2013-08-11 07:20:00,70.0,99.9,29.37,North,360,0.0,0.0,0,0.00,CLR,OVC,0.00,WeatherDisplay:10.37,2013-08-11 11:20:00,
2013-08-11 07:25:00,70.0,99.9,29.37,North,360,0.0,0.0,0,0.00,CLR,OVC,0.00,WeatherDisplay:10.37,2013-08-11 11:25:00,
2013-08-11 07:31:00,70.0,99.9,29.37,North,360,0.0,0.0,0,0.00,CLR,OVC,0.00,WeatherDisplay:10.37,2013-08-11 11:31:00,
2013-08-11 07:36:00,70.0,99.9,29.37,North,360,0.0,0.0,0,0.00,CLR,OVC,0.00,WeatherDisplay:10.37,2013-08-11 11:36:00,
2013-08-11 07:42:00,70.0,99.9,29.37,North,360,0.0,0.0,0,0.00,CLR,OVC,0.00,WeatherDisplay:10.37,2013-08-11 11:42:00,
2013-08-11 07:47:00,70.0,99.9,29.37,NW,315,0.0,0.0,0,0.00,CLR,OVC,0.00,WeatherDisplay:10.37,2013-08-11 11:47:00,
2013-08-11 07:52:00,70.0,99.9,29.37,NW,315,0.0,0.0,0,0.00,CLR,OVC,0.00,WeatherDisplay:10.37,2013-08-11 11:52:00,
2013-08-11 07:57:00,70.0,99.9,29.37,West,270,0.0,0.0,0,0.00,CLR,OVC,0.00,WeatherDisplay:10.37,2013-08-11 11:57:00,
2013-08-11 08:02:00,70.0,99.9,29.37,West,270,1.2,1.2,0,0.00,CLR,OVC,0.00,WeatherDisplay:10.37,2013-08-11 12:02:00,
2013-08-11 08:07:00,71.0,99.9,29.37,West,270,0.0,0.0,0,0.00,CLR,OVC,0.00,WeatherDisplay:10.37,2013-08-11 12:07:00,
2013-08-11 08:13:00,71.0,99.9,29.37,West,270,0.0,0.0,0,0.00,CLR,OVC,0.00,WeatherDisplay:10.37,2013-08-11 12:13:00,
2013-08-11 08:19:00,71.0,99.9,29.37,West,270,0.0,0.0,0,0.00,CLR,OVC,0.00,WeatherDisplay:10.37,2013-08-11 12:19:00,
2013-08-11 08:24:00,71.0,99.9,29.37,WNW,292,0.0,0.0,0,0.00,CLR,OVC,0.00,WeatherDisplay:10.37,2013-08-11 12:24:00,
2013-08-11 08:29:00,71.0,99.9,29.37,WNW,292,0.0,0.0,0,0.00,CLR,OVC,0.00,WeatherDisplay:10.37,2013-08-11 12:29:00,
2013-08-11 08:35:00,71.0,99.9,29.37,WNW,292,0.0,0.0,0,0.00,CLR,OVC,0.00,WeatherDisplay:10.37,2013-08-11 12:35:00,
2013-08-11 08:40:00,71.0,99.9,29.37,WNW,292,0.0,0.0,0,0.00,CLR,OVC,0.00,WeatherDisplay:10.37,2013-08-11 12:40:00,
2013-08-11 08:45:00,71.0,0.4,29.37,WNW,292,0.0,0.0,6,0.00,CLR,OVC,0.00,WeatherDisplay:10.37,2013-08-11 12:45:00,
2013-08-11 08:51:00,71.0,99.9,29.37,WNW,292,0.0,0.0,0,0.00,CLR,OVC,0.00,WeatherDisplay:10.37,2013-08-11 12:51:00,
2013-08-11 08:56:00,72.0,99.9,29.37,WSW,247,0.0,0.0,0,0.00,CLR,OVC,0.00,WeatherDisplay:10.37,2013-08-11 12:56:00,
2013-08-11 09:01:00,72.0,99.9,29.37,WSW,247,0.0,0.0,0,0.00,CLR,OVC,0.00,WeatherDisplay:10.37,2013-08-11 13:01:00,
2013-08-11 09:06:00,72.0,99.9,29.38,WSW,247,0.0,0.0,0,0.00,CLR,OVC,0.00,WeatherDisplay:10.37,2013-08-11 13:06:00,
2013-08-11 09:12:00,72.0,99.9,29.38,West,270,2.3,2.3,0,0.00,CLR,OVC,0.00,WeatherDisplay:10.37,2013-08-11 13:12:00,
2013-08-11 09:17:00,72.0,-21.2,29.38,West,270,0.0,0.0,2,0.00,CLR,OVC,0.00,WeatherDisplay:10.37,2013-08-11 13:17:00,
2013-08-11 09:22:00,72.0,-34.0,29.38,West,270,0.0,0.0,1,0.00,CLR,OVC,0.00,WeatherDisplay:10.37,2013-08-11 13:22:00,
2013-08-11 09:27:00,73.0,-33.4,29.38,West,270,1.2,0.0,1,0.00,CLR,OVC,0.00,WeatherDisplay:10.37,2013-08-11 13:27:00,
2013-08-11 09:33:00,74.0,-6.0,29.38,WNW,292,1.2,0.0,4,0.00,CLR,OVC,0.00,WeatherDisplay:10.37,2013-08-11 13:33:00,
2013-08-11 09:38:00,74.0,20.0,29.37,West,270,0.0,0.0,13,0.00,CLR,OVC,0.00,WeatherDisplay:10.37,2013-08-11 13:38:00,
2013-08-11 09:44:00,75.0,38.7,29.37,West,270,0.0,0.0,27,0.00,CLR,OVC,0.00,WeatherDisplay:10.37,2013-08-11 13:44:00,
2013-08-11 09:49:00,76.0,36.6,29.38,West,270,0.0,0.0,24,0.00,CLR,OVC,0.00,WeatherDisplay:10.37,2013-08-11 13:49:00,
2013-08-11 09:55:00,77.0,74.5,29.37,West,270,0.0,0.0,92,0.00,CLR,OVC,0.00,WeatherDisplay:10.37,2013-08-11 13:55:00,
2013-08-11 10:00:00,77.0,75.8,29.37,WNW,292,0.0,0.0,96,0.00,CLR,OVC,0.00,WeatherDisplay:10.37,2013-08-11 14:00:00,
2013-08-11 10:06:00,78.0,78.0,29.38,WNW,292,0.0,0.0,100,0.00,CLR,OVC,0.00,WeatherDisplay:10.37,2013-08-11 14:06:00,
2013-08-11 10:11:00,78.0,78.0,29.38,West,270,3.5,3.5,100,0.00,CLR,OVC,0.00,WeatherDisplay:10.37,2013-08-11 14:11:00,
2013-08-11 10:16:00,79.0,79.0,29.37,West,270,0.0,0.0,100,0.00,CLR,OVC,0.00,WeatherDisplay:10.37,2013-08-11 14:16:00,
2013-08-11 10:21:00,80.0,80.0,29.37,West,270,0.0,0.0,100,0.00,CLR,OVC,0.00,WeatherDisplay:10.37,2013-08-11 14:21:00,
2013-08-11 10:26:00,80.0,80.0,29.38,West,270,0.0,0.0,100,0.00,CLR,OVC,0.00,WeatherDisplay:10.37,2013-08-11 14:26:00,
2013-08-11 10:31:00,81.0,79.1,29.38,West,270,3.0,3.0,94,0.00,CLR,OVC,0.00,WeatherDisplay:10.37,2013-08-11 14:31:00,
2013-08-11 10:37:00,80.0,76.8,29.37,WSW,247,2.3,2.3,90,0.00,CLR,OVC,0.00,WeatherDisplay:10.37,2013-08-11 14:37:00,
2013-08-11 10:42:00,81.0,77.8,29.37,West,270,0.0,0.0,90,0.00,CLR,OVC,0.00,WeatherDisplay:10.37,2013-08-11 14:42:00,
2013-08-11 10:47:00,81.0,76.4,29.37,NNW,337,2.3,2.3,86,0.00,CLR,OVC,0.00,WeatherDisplay:10.37,2013-08-11 14:47:00,
2013-08-11 10:52:00,81.0,77.1,29.37,West,270,0.0,0.0,88,0.00,CLR,OVC,0.00,WeatherDisplay:10.37,2013-08-11 14:52:00,
2013-08-11 10:57:00,81.0,76.8,29.37,WNW,292,2.3,2.3,87,0.00,CLR,OVC,0.00,WeatherDisplay:10.37,2013-08-11 14:57:00,
2013-08-11 11:02:00,82.0,78.4,29.37,West,270,0.0,0.0,89,0.00,CLR,OVC,0.00,WeatherDisplay:10.37,2013-08-11 15:02:00,
2013-08-11 11:07:00,84.0,78.3,29.37,West,270,0.0,0.0,83,0.00,CLR,OVC,0.00,WeatherDisplay:10.37,2013-08-11 15:07:00,
2013-08-11 11:13:00,84.0,77.2,29.37,WNW,292,0.0,0.0,80,0.00,CLR,OVC,0.00,WeatherDisplay:10.37,2013-08-11 15:13:00,
2013-08-11 11:18:00,85.0,77.0,29.36,NW,315,0.0,0.0,77,0.00,CLR,OVC,0.00,WeatherDisplay:10.37,2013-08-11 15:18:00,
2013-08-11 11:24:00,85.0,76.6,29.36,West,270,0.0,0.0,76,0.00,CLR,OVC,0.00,WeatherDisplay:10.37,2013-08-11 15:24:00,
2013-08-11 11:29:00,86.0,77.9,29.35,WNW,292,0.0,0.0,77,0.00,CLR,OVC,0.00,WeatherDisplay:10.37,2013-08-11 15:29:00,
2013-08-11 11:34:00,87.0,78.1,29.35,NNE,22,0.0,0.0,75,0.00,CLR,OVC,0.00,WeatherDisplay:10.37,2013-08-11 15:34:00,
2013-08-11 11:40:00,87.0,76.0,29.35,North,360,0.0,0.0,70,0.00,CLR,OVC,0.00,WeatherDisplay:10.37,2013-08-11 15:40:00,
2013-08-11 11:45:00,88.0,77.0,29.34,ESE,112,0.0,0.0,70,0.00,CLR,OVC,0.00,WeatherDisplay:10.37,2013-08-11 15:45:00,
2013-08-11 11:50:00,88.0,77.8,29.34,SW,225,0.0,0.0,72,0.00,CLR,OVC,0.00,WeatherDisplay:10.37,2013-08-11 15:50:00,
2013-08-11 11:55:00,87.0,76.0,29.35,SE,135,0.0,0.0,70,0.00,CLR,OVC,0.00,WeatherDisplay:10.37,2013-08-11 15:55:00,
2013-08-11 12:00:00,87.0,76.0,29.35,SE,135,0.0,0.0,70,0.00,CLR,OVC,0.00,WeatherDisplay:10.37,2013-08-11 16:00:00,
2013-08-11 12:05:00,88.0,77.0,29.34,SE,135,0.0,0.0,70,0.00,CLR,OVC,0.00,WeatherDisplay:10.37,2013-08-11 16:05:00,
2013-08-11 12:11:00,88.0,75.2,29.34,East,90,0.0,0.0,66,0.00,CLR,OVC,0.00,WeatherDisplay:10.37,2013-08-11 16:11:00,
2013-08-11 12:16:00,89.0,77.1,29.33,East,90,0.0,0.0,68,0.00,CLR,OVC,0.00,WeatherDisplay:10.37,2013-08-11 16:16:00,
2013-08-11 12:21:00,90.0,75.2,29.33,East,90,0.0,0.0,62,0.00,CLR,OVC,0.00,WeatherDisplay:10.37,2013-08-11 16:21:00,
2013-08-11 12:27:00,89.0,76.2,29.33,ESE,112,0.0,0.0,66,0.00,CLR,OVC,0.00,WeatherDisplay:10.37,2013-08-11 16:27:00,
2013-08-11 12:32:00,89.0,75.7,29.33,ESE,112,0.0,0.0,65,0.00,CLR,OVC,0.00,WeatherDisplay:10.37,2013-08-11 16:32:00,
2013-08-11 12:37:00,90.0,78.0,29.33,ESE,112,0.0,0.0,68,0.00,CLR,OVC,0.00,WeatherDisplay:10.37,2013-08-11 16:37:00,
2013-08-11 12:42:00,90.0,76.6,29.33,West,270,0.0,0.0,65,0.00,CLR,OVC,0.00,WeatherDisplay:10.37,2013-08-11 16:42:00,
2013-08-11 12:47:00,89.0,75.7,29.33,West,270,0.0,0.0,65,0.00,CLR,OVC,0.00,WeatherDisplay:10.37,2013-08-11 16:47:00,
2013-08-11 12:52:00,89.0,76.6,29.33,West,270,0.0,0.0,67,0.00,CLR,OVC,0.00,WeatherDisplay:10.37,2013-08-11 16:52:00,
2013-08-11 12:57:00,88.0,74.3,29.32,South,180,0.0,0.0,64,0.00,CLR,OVC,0.00,WeatherDisplay:10.37,2013-08-11 16:57:00,
2013-08-11 13:03:00,88.0,74.8,29.32,South,180,0.0,0.0,65,0.00,CLR,OVC,0.00,WeatherDisplay:10.37,2013-08-11 17:03:00,
2013-08-11 13:08:00,88.0,75.7,29.33,NW,315,0.0,0.0,67,0.00,CLR,OVC,0.00,WeatherDisplay:10.37,2013-08-11 17:08:00,
2013-08-11 13:13:00,89.0,76.6,29.33,SW,225,0.0,0.0,67,0.00,CLR,OVC,0.00,WeatherDisplay:10.37,2013-08-11 17:13:00,
2013-08-11 13:18:00,89.0,74.8,29.32,West,270,0.0,0.0,63,0.00,CLR,OVC,0.00,WeatherDisplay:10.37,2013-08-11 17:18:00,
2013-08-11 13:24:00,90.0,76.2,29.32,WSW,247,0.0,0.0,64,0.00,CLR,OVC,0.00,WeatherDisplay:10.37,2013-08-11 17:24:00,
2013-08-11 13:29:00,89.0,74.3,29.32,South,180,0.0,0.0,62,0.00,CLR,OVC,0.00,WeatherDisplay:10.37,2013-08-11 17:29:00,
2013-08-11 13:35:00,89.0,74.8,29.32,WNW,292,0.0,0.0,63,0.00,CLR,OVC,0.00,WeatherDisplay:10.37,2013-08-11 17:35:00,
2013-08-11 13:40:00,89.0,73.8,29.32,WSW,247,0.0,0.0,61,0.00,CLR,OVC,0.00,WeatherDisplay:10.37,2013-08-11 17:40:00,
2013-08-11 13:46:00,90.0,75.7,29.31,West,270,0.0,0.0,63,0.00,CLR,OVC,0.00,WeatherDisplay:10.37,2013-08-11 17:46:00,
2013-08-11 13:51:00,89.0,74.8,29.31,NW,315,0.0,0.0,63,0.00,CLR,OVC,0.00,WeatherDisplay:10.37,2013-08-11 17:51:00,
2013-08-11 13:56:00,89.0,75.7,29.31,NW,315,0.0,0.0,65,0.00,CLR,OVC,0.00,WeatherDisplay:10.37,2013-08-11 17:56:00,
2013-08-11 14:01:00,90.0,75.7,29.31,NW,315,0.0,0.0,63,0.00,CLR,OVC,0.00,WeatherDisplay:10.37,2013-08-11 18:01:00,
2013-08-11 14:07:00,91.0,74.7,29.29,NW,315,0.0,0.0,59,0.00,CLR,OVC,0.00,WeatherDisplay:10.37,2013-08-11 18:07:00,
2013-08-11 14:12:00,90.0,72.7,29.29,West,270,0.0,0.0,57,0.00,CLR,OVC,0.00,WeatherDisplay:10.37,2013-08-11 18:12:00,
2013-08-11 14:17:00,90.0,74.2,29.30,NW,315,0.0,0.0,60,0.00,CLR,OVC,0.00,WeatherDisplay:10.37,2013-08-11 18:17:00,
2013-08-11 14:22:00,90.0,73.2,29.30,West,270,0.0,0.0,58,0.00,CLR,OVC,0.00,WeatherDisplay:10.37,2013-08-11 18:22:00,
2013-08-11 14:27:00,91.0,75.7,29.29,WSW,247,0.0,0.0,61,0.00,CLR,OVC,0.00,WeatherDisplay:10.37,2013-08-11 18:27:00,
2013-08-11 14:32:00,91.0,73.7,29.29,NW,315,0.0,0.0,57,0.00,CLR,OVC,0.00,WeatherDisplay:10.37,2013-08-11 18:32:00,
2013-08-11 14:37:00,93.0,75.0,29.29,WNW,292,0.0,0.0,56,0.00,CLR,OVC,0.00,WeatherDisplay:10.37,2013-08-11 18:37:00,
2013-08-11 14:43:00,93.0,72.8,29.29,WSW,247,0.0,0.0,52,0.00,CLR,OVC,0.00,WeatherDisplay:10.37,2013-08-11 18:43:00,
2013-08-11 14:48:00,93.0,73.9,29.29,West,270,0.0,0.0,54,0.00,CLR,OVC,0.00,WeatherDisplay:10.37,2013-08-11 18:48:00,
2013-08-11 14:53:00,92.0,73.5,29.29,NW,315,0.0,0.0,55,0.00,CLR,OVC,0.00,WeatherDisplay:10.37,2013-08-11 18:53:00,
2013-08-11 14:58:00,93.0,73.3,29.29,West,270,0.0,0.0,53,0.00,CLR,OVC,0.00,WeatherDisplay:10.37,2013-08-11 18:58:00,
2013-08-11 15:03:00,93.0,74.4,29.29,West,270,0.0,0.0,55,0.00,CLR,OVC,0.00,WeatherDisplay:10.37,2013-08-11 19:03:00,
2013-08-11 15:09:00,92.0,73.5,29.29,NW,315,0.0,0.0,55,0.00,CLR,OVC,0.00,WeatherDisplay:10.37,2013-08-11 19:09:00,
2013-08-11 15:15:00,93.0,74.4,29.28,NW,315,0.0,0.0,55,0.00,CLR,OVC,0.00,WeatherDisplay:10.37,2013-08-11 19:15:00,
2013-08-11 15:20:00,93.0,73.3,29.28,West,270,0.0,0.0,53,0.00,CLR,OVC,0.00,WeatherDisplay:10.37,2013-08-11 19:20:00,
2013-08-11 15:25:00,93.0,74.4,29.28,SW,225,0.0,0.0,55,0.00,CLR,OVC,0.00,WeatherDisplay:10.37,2013-08-11 19:25:00,
2013-08-11 15:31:00,93.0,72.8,29.28,WSW,247,0.0,0.0,52,0.00,CLR,OVC,0.00,WeatherDisplay:10.37,2013-08-11 19:31:00,
2013-08-11 15:36:00,93.0,72.2,29.28,South,180,0.0,0.0,51,0.00,CLR,OVC,0.00,WeatherDisplay:10.37,2013-08-11 19:36:00,
2013-08-11 15:42:00,94.0,73.1,29.28,South,180,0.0,0.0,51,0.00,CLR,OVC,0.00,WeatherDisplay:10.37,2013-08-11 19:42:00,
2013-08-11 15:47:00,93.0,72.8,29.27,West,270,0.0,0.0,52,0.00,CLR,OVC,0.00,WeatherDisplay:10.37,2013-08-11 19:47:00,
2013-08-11 15:52:00,92.0,73.0,29.27,NW,315,0.0,0.0,54,0.00,CLR,OVC,0.00,WeatherDisplay:10.37,2013-08-11 19:52:00,
2013-08-11 15:57:00,91.0,72.0,29.27,NW,315,0.0,0.0,54,0.00,CLR,OVC,0.00,WeatherDisplay:10.37,2013-08-11 19:57:00,
2013-08-11 16:03:00,92.0,72.4,29.27,WSW,247,0.0,0.0,53,0.00,CLR,OVC,0.00,WeatherDisplay:10.37,2013-08-11 20:03:00,
2013-08-11 16:08:00,93.0,72.2,29.27,WSW,247,0.0,0.0,51,0.00,CLR,OVC,0.00,WeatherDisplay:10.37,2013-08-11 20:08:00,
2013-08-11 16:14:00,94.0,73.1,29.27,WSW,247,0.0,0.0,51,0.00,CLR,OVC,0.00,WeatherDisplay:10.37,2013-08-11 20:14:00,
2013-08-11 16:19:00,94.0,73.7,29.27,SW,225,0.0,0.0,52,0.00,CLR,OVC,0.00,WeatherDisplay:10.37,2013-08-11 20:19:00,
2013-08-11 16:24:00,92.0,73.0,29.27,West,270,0.0,0.0,54,0.00,CLR,OVC,0.00,WeatherDisplay:10.37,2013-08-11 20:24:00,
2013-08-11 16:30:00,92.0,74.1,29.29,West,270,0.0,0.0,56,0.00,CLR,OVC,0.00,WeatherDisplay:10.37,2013-08-11 20:30:00,
2013-08-11 16:35:00,92.0,73.0,29.27,WSW,247,0.0,0.0,54,0.00,CLR,OVC,0.00,WeatherDisplay:10.37,2013-08-11 20:35:00,
2013-08-11 16:41:00,92.0,73.0,29.27,WSW,247,0.0,0.0,54,0.00,CLR,OVC,0.00,WeatherDisplay:10.37,2013-08-11 20:41:00,
2013-08-11 16:46:00,93.0,72.8,29.27,NW,315,0.0,0.0,52,0.00,CLR,OVC,0.00,WeatherDisplay:10.37,2013-08-11 20:46:00,
2013-08-11 16:51:00,94.0,73.7,29.27,NW,315,0.0,0.0,52,0.00,CLR,OVC,0.00,WeatherDisplay:10.37,2013-08-11 20:51:00,
2013-08-11 16:56:00,93.0,72.8,29.27,NW,315,0.0,0.0,52,0.00,CLR,OVC,0.00,WeatherDisplay:10.37,2013-08-11 20:56:00,
2013-08-11 17:02:00,91.0,71.5,29.27,NW,315,0.0,0.0,53,0.00,CLR,OVC,0.00,WeatherDisplay:10.37,2013-08-11 21:02:00,
2013-08-11 17:07:00,90.0,73.7,29.28,NW,315,0.0,0.0,59,0.00,CLR,OVC,0.00,WeatherDisplay:10.37,2013-08-11 21:07:00,
2013-08-11 17:12:00,88.0,75.2,29.28,NW,315,0.0,0.0,66,0.00,CLR,OVC,0.00,WeatherDisplay:10.37,2013-08-11 21:12:00,
2013-08-11 17:17:00,86.0,74.2,29.29,NW,315,7.0,7.0,68,0.00,CLR,OVC,0.00,WeatherDisplay:10.37,2013-08-11 21:17:00,
2013-08-11 17:23:00,85.0,74.5,29.29,NE,45,0.0,0.0,71,0.00,CLR,OVC,0.00,WeatherDisplay:10.37,2013-08-11 21:23:00,
2013-08-11 17:28:00,84.0,73.6,29.29,NE,45,0.0,0.0,71,0.00,CLR,OVC,0.00,WeatherDisplay:10.37,2013-08-11 21:28:00,
2013-08-11 17:33:00,83.0,73.0,29.29,ENE,67,0.0,0.0,72,0.00,CLR,OVC,0.00,WeatherDisplay:10.37,2013-08-11 21:33:00,
2013-08-11 17:39:00,82.0,74.1,29.27,ENE,67,0.0,0.0,77,0.00,CLR,OVC,0.00,WeatherDisplay:10.37,2013-08-11 21:39:00,
2013-08-11 17:44:00,81.0,74.6,29.27,ENE,67,0.0,0.0,81,0.00,CLR,OVC,0.00,WeatherDisplay:10.37,2013-08-11 21:44:00,
2013-08-11 17:49:00,80.0,74.4,29.28,ENE,67,0.0,0.0,83,0.00,CLR,OVC,0.00,WeatherDisplay:10.37,2013-08-11 21:49:00,
2013-08-11 17:54:00,80.0,75.8,29.28,West,270,0.0,0.0,87,0.00,CLR,OVC,0.00,WeatherDisplay:10.37,2013-08-11 21:54:00,
2013-08-11 17:59:00,80.0,75.8,29.27,WNW,292,2.0,2.0,87,0.00,CLR,OVC,0.00,WeatherDisplay:10.37,2013-08-11 21:59:00,
2013-08-11 18:04:00,79.0,75.1,29.27,NW,315,0.0,0.3,88,0.00,CLR,OVC,0.00,WeatherDisplay:10.37,2013-08-11 22:04:00,
2013-08-11 18:09:00,79.0,75.8,29.28,West,270,0.0,0.0,90,0.00,CLR,OVC,0.00,WeatherDisplay:10.37,2013-08-11 22:09:00,
2013-08-11 18:14:00,78.0,75.8,29.28,West,270,0.0,0.0,93,0.00,CLR,OVC,0.00,WeatherDisplay:10.37,2013-08-11 22:14:00,
2013-08-11 18:19:00,78.0,76.5,29.29,WSW,247,3.5,3.5,95,0.00,CLR,OVC,0.00,WeatherDisplay:10.37,2013-08-11 22:19:00,
2013-08-11 18:24:00,78.0,77.1,29.29,WNW,292,3.5,3.5,97,0.00,CLR,OVC,0.00,WeatherDisplay:10.37,2013-08-11 22:24:00,
2013-08-11 18:30:00,77.0,77.0,29.29,West,270,3.5,3.5,100,0.00,CLR,OVC,0.00,WeatherDisplay:10.37,2013-08-11 22:30:00,
2013-08-11 18:35:00,78.0,78.0,29.28,West,270,3.5,3.5,100,0.00,CLR,OVC,0.00,WeatherDisplay:10.37,2013-08-11 22:35:00,
2013-08-11 18:40:00,77.0,77.0,29.28,WNW,292,0.0,0.0,100,0.00,CLR,OVC,0.00,WeatherDisplay:10.37,2013-08-11 22:40:00,
2013-08-11 18:46:00,77.0,77.0,29.28,WNW,292,0.0,0.0,100,0.00,CLR,OVC,0.00,WeatherDisplay:10.37,2013-08-11 22:46:00,
2013-08-11 18:51:00,77.0,77.0,29.28,WNW,292,1.2,0.0,100,0.00,CLR,OVC,0.00,WeatherDisplay:10.37,2013-08-11 22:51:00,
2013-08-11 18:56:00,77.0,77.0,29.28,NW,315,0.0,0.0,100,0.00,CLR,OVC,0.00,WeatherDisplay:10.37,2013-08-11 22:56:00,
2013-08-11 19:02:00,77.0,77.0,29.28,SW,225,0.0,0.0,100,0.00,CLR,OVC,0.00,WeatherDisplay:10.37,2013-08-11 23:02:00,
2013-08-11 19:07:00,77.0,77.0,29.29,SW,225,0.0,0.0,100,0.00,CLR,OVC,0.00,WeatherDisplay:10.37,2013-08-11 23:07:00,
2013-08-11 19:12:00,76.0,76.0,29.29,West,270,1.0,1.0,100,0.00,CLR,OVC,0.00,WeatherDisplay:10.37,2013-08-11 23:12:00,
2013-08-11 19:18:00,76.0,76.0,29.28,West,270,0.0,0.0,100,0.00,CLR,OVC,0.00,WeatherDisplay:10.37,2013-08-11 23:18:00,
2013-08-11 19:24:00,76.0,76.0,29.28,West,270,0.0,0.0,100,0.00,CLR,OVC,0.00,WeatherDisplay:10.37,2013-08-11 23:24:00,
2013-08-11 19:29:00,76.0,76.0,29.29,West,270,0.0,0.0,100,0.00,CLR,OVC,0.00,WeatherDisplay:10.37,2013-08-11 23:29:00,
2013-08-11 19:34:00,76.0,76.0,29.29,West,270,0.0,0.0,100,0.00,CLR,OVC,0.00,WeatherDisplay:10.37,2013-08-11 23:34:00,
2013-08-11 19:39:00,76.0,76.0,29.29,West,270,0.0,0.0,100,0.00,CLR,OVC,0.00,WeatherDisplay:10.37,2013-08-11 23:39:00,
2013-08-11 19:44:00,76.0,76.0,29.29,West,270,0.0,0.0,100,0.00,CLR,OVC,0.00,WeatherDisplay:10.37,2013-08-11 23:44:00,
2013-08-11 19:49:00,76.0,76.0,29.29,West,270,0.0,0.0,100,0.00,CLR,OVC,0.00,WeatherDisplay:10.37,2013-08-11 23:49:00,
2013-08-11 19:54:00,76.0,76.0,29.29,West,270,0.0,0.0,100,0.00,CLR,OVC,0.00,WeatherDisplay:10.37,2013-08-11 23:54:00,
2013-08-11 20:00:00,75.0,75.0,29.29,West,270,0.0,0.0,100,0.00,CLR,OVC,0.00,WeatherDisplay:10.37,2013-08-12 00:00:00,
2013-08-11 20:05:00,75.0,75.0,29.29,West,270,0.0,0.0,100,0.00,CLR,OVC,0.00,WeatherDisplay:10.37,2013-08-12 00:05:00,
2013-08-11 20:10:00,75.0,75.0,29.29,West,270,0.0,0.0,100,0.00,CLR,OVC,0.00,WeatherDisplay:10.37,2013-08-12 00:10:00,
2013-08-11 20:15:00,75.0,75.0,29.29,WNW,292,0.0,0.0,100,0.00,CLR,OVC,0.00,WeatherDisplay:10.37,2013-08-12 00:15:00,
2013-08-11 20:20:00,75.0,75.0,29.29,WNW,292,0.0,0.0,100,0.00,CLR,OVC,0.00,WeatherDisplay:10.37,2013-08-12 00:20:00,
2013-08-11 20:26:00,75.0,75.0,29.29,WNW,292,0.0,0.0,100,0.00,CLR,OVC,0.00,WeatherDisplay:10.37,2013-08-12 00:26:00,
2013-08-11 20:31:00,75.0,75.0,29.29,WNW,292,0.0,0.0,100,0.00,CLR,OVC,0.00,WeatherDisplay:10.37,2013-08-12 00:31:00,
2013-08-11 20:36:00,74.0,74.0,29.28,WNW,292,0.0,0.0,100,0.00,CLR,OVC,0.00,WeatherDisplay:10.37,2013-08-12 00:36:00,
2013-08-11 20:42:00,74.0,73.7,29.28,WNW,292,0.0,0.0,99,0.00,CLR,OVC,0.00,WeatherDisplay:10.37,2013-08-12 00:42:00,
2013-08-11 20:47:00,74.0,73.1,29.29,WNW,292,0.0,0.0,97,0.00,CLR,OVC,0.00,WeatherDisplay:10.37,2013-08-12 00:47:00,
2013-08-11 20:52:00,74.0,72.5,29.29,WNW,292,0.0,0.0,95,0.00,CLR,OVC,0.00,WeatherDisplay:10.37,2013-08-12 00:52:00,
2013-08-11 20:57:00,74.0,72.2,29.28,WNW,292,0.0,0.0,94,0.00,CLR,OVC,0.00,WeatherDisplay:10.37,2013-08-12 00:57:00,
2013-08-11 21:02:00,74.0,71.5,29.28,WNW,292,0.0,0.0,92,0.00,CLR,OVC,0.00,WeatherDisplay:10.37,2013-08-12 01:02:00,
2013-08-11 21:08:00,74.0,70.6,29.29,WNW,292,0.0,0.0,89,0.00,CLR,OVC,0.00,WeatherDisplay:10.37,2013-08-12 01:08:00,
2013-08-11 21:14:00,74.0,63.6,29.29,NW,315,0.0,0.0,70,0.00,CLR,OVC,0.00,WeatherDisplay:10.37,2013-08-12 01:14:00,
2013-08-11 21:19:00,74.0,65.6,29.29,NNE,22,0.0,0.0,75,0.00,CLR,OVC,0.00,WeatherDisplay:10.37,2013-08-12 01:19:00,
2013-08-11 21:24:00,73.0,67.9,29.29,NNE,22,0.0,0.0,84,0.00,CLR,OVC,0.00,WeatherDisplay:10.37,2013-08-12 01:24:00,
2013-08-11 21:29:00,73.0,68.6,29.29,NNE,22,0.0,0.0,86,0.00,CLR,OVC,0.00,WeatherDisplay:10.37,2013-08-12 01:29:00,
2013-08-11 21:34:00,73.0,67.5,29.29,NNE,22,0.0,0.0,83,0.00,CLR,OVC,0.00,WeatherDisplay:10.37,2013-08-12 01:34:00,
2013-08-11 21:39:00,73.0,67.2,29.30,NNE,22,0.0,0.0,82,0.00,CLR,OVC,0.00,WeatherDisplay:10.37,2013-08-12 01:39:00,
2013-08-11 21:45:00,73.0,67.9,29.30,NNE,22,0.0,0.0,84,0.00,CLR,OVC,0.00,WeatherDisplay:10.37,2013-08-12 01:45:00,
2013-08-11 21:51:00,73.0,66.5,29.30,NNE,22,0.0,0.0,80,0.00,CLR,OVC,0.00,WeatherDisplay:10.37,2013-08-12 01:51:00,
2013-08-11 21:56:00,72.0,66.2,29.29,NNE,22,0.0,0.0,82,0.00,CLR,OVC,0.00,WeatherDisplay:10.37,2013-08-12 01:56:00,
2013-08-11 22:01:00,72.0,66.2,29.29,NNE,22,0.0,0.0,82,0.00,CLR,OVC,0.00,WeatherDisplay:10.37,2013-08-12 02:01:00,
2013-08-11 22:06:00,72.0,66.9,29.30,NNE,22,0.0,0.0,84,0.00,CLR,OVC,0.00,WeatherDisplay:10.37,2013-08-12 02:06:00,
2013-08-11 22:11:00,72.0,65.8,29.30,NNE,22,0.0,0.0,81,0.00,CLR,OVC,0.00,WeatherDisplay:10.37,2013-08-12 02:11:00,
2013-08-11 22:16:00,72.0,66.2,29.30,NNE,22,0.0,0.0,82,0.00,CLR,OVC,0.00,WeatherDisplay:10.37,2013-08-12 02:16:00,
2013-08-11 22:22:00,72.0,65.1,29.30,NNE,22,0.0,0.0,79,0.00,CLR,OVC,0.00,WeatherDisplay:10.37,2013-08-12 02:22:00,
2013-08-11 22:27:00,72.0,65.5,29.31,NNE,22,0.0,0.0,80,0.00,CLR,OVC,0.00,WeatherDisplay:10.37,2013-08-12 02:27:00,
2013-08-11 22:32:00,72.0,65.8,29.31,NNE,22,0.0,0.0,81,0.00,CLR,OVC,0.00,WeatherDisplay:10.37,2013-08-12 02:32:00,
2013-08-11 22:37:00,72.0,64.8,29.31,NNE,22,0.0,0.0,78,0.00,CLR,OVC,0.00,WeatherDisplay:10.37,2013-08-12 02:37:00,
2013-08-11 22:42:00,72.0,63.3,29.31,NNE,22,0.0,0.0,74,0.00,CLR,OVC,0.00,WeatherDisplay:10.37,2013-08-12 02:42:00,
2013-08-11 22:47:00,72.0,62.1,29.30,NNE,22,0.0,0.0,71,0.00,CLR,OVC,0.00,WeatherDisplay:10.37,2013-08-12 02:47:00,
2013-08-11 22:53:00,72.0,62.9,29.30,NNE,22,0.0,0.0,73,0.00,CLR,OVC,0.00,WeatherDisplay:10.37,2013-08-12 02:53:00,
2013-08-11 22:58:00,72.0,61.7,29.29,NNE,22,0.0,0.0,70,0.00,CLR,OVC,0.00,WeatherDisplay:10.37,2013-08-12 02:58:00,
2013-08-11 23:03:00,72.0,59.6,29.29,NNE,22,0.0,0.0,65,0.00,CLR,OVC,0.00,WeatherDisplay:10.37,2013-08-12 03:03:00,
2013-08-11 23:08:00,72.0,59.2,29.30,NNE,22,0.0,0.0,64,0.00,CLR,OVC,0.00,WeatherDisplay:10.37,2013-08-12 03:08:00,
2013-08-11 23:13:00,72.0,56.4,29.30,NNE,22,0.0,0.0,58,0.00,CLR,OVC,0.00,WeatherDisplay:10.37,2013-08-12 03:13:00,
2013-08-11 23:19:00,72.0,53.9,29.31,NNE,22,0.0,0.0,53,0.00,CLR,OVC,0.00,WeatherDisplay:10.37,2013-08-12 03:19:00,
2013-08-11 23:24:00,72.0,45.7,29.31,NNE,22,0.0,0.0,39,0.00,CLR,OVC,0.00,WeatherDisplay:10.37,2013-08-12 03:24:00,
2013-08-11 23:29:00,72.0,44.3,29.31,NNE,22,0.0,0.0,37,0.00,CLR,OVC,0.00,WeatherDisplay:10.37,2013-08-12 03:29:00,
2013-08-11 23:35:00,72.0,49.5,29.32,NNE,22,0.0,0.0,45,0.00,CLR,OVC,0.00,WeatherDisplay:10.37,2013-08-12 03:35:00,
2013-08-11 23:40:00,72.0,42.8,29.32,NNE,22,0.0,0.0,35,0.00,CLR,OVC,0.00,WeatherDisplay:10.37,2013-08-12 03:40:00,
2013-08-11 23:45:00,73.0,52.7,29.31,NNE,22,0.0,0.0,49,0.00,CLR,OVC,0.00,WeatherDisplay:10.37,2013-08-12 03:45:00,
2013-08-11 23:50:00,72.0,50.1,29.31,NNE,22,0.0,0.0,46,0.00,CLR,OVC,0.00,WeatherDisplay:10.37,2013-08-12 03:50:00,
2013-08-11 23:55:00,72.0,55.4,29.32,NNE,22,0.0,0.0,56,0.00,CLR,OVC,0.00,WeatherDisplay:10.37,2013-08-12 03:55:00,